Home > Time Zones > World Clock > Weather > India > Thane > Past weeks

Flag for India Weather past 2 weeks in Thane, Maharashtra, India

Now
79 °F

Broken clouds.


Feels Like: 81 °F
Forecast: 73 / 82 °F
Wind: 9 mph from South

Location: Bombay / Santacruz

Current Time: Mar 1, 2015 at 2:16:26 PM

Latest Report: Mar 1, 2015 at 12:40 PM


Visibility: 4 mi

Pressure: 29.80 "Hg

Humidity: 65%

Dew point: 66 °F

Location of ThaneLocation

Historic Weather in Thane — Graph

°F

Thane temperature yesterday

Maximum temperature yesterday: 79 °F (at 12:40 PM)
Minimum temperature yesterday: 68 °F (at 11:40 PM)
Average temperature yesterday: 73 °F

Past Weeks' High & Low Weather Summary

 TemperatureHumidityPressure
High102 °F (Feb 21, 3:40 PM)100% (Feb 27, 4:40 AM)29.98 "Hg (Feb 27, 4:40 AM)
Low68 °F (Feb 28, 11:40 PM)12% (Feb 21, 3:40 PM)29.74 "Hg (Mar 1, 3:40 AM)
Average80 °F61%29.87 "Hg
* Reported Feb 14 12:40 PM — Mar 1 12:40 PM, Thane, Weather by CustomWeather, © 2015

Note: Actual official high and low records may vary slightly from our data, if they occured in-between our weather recording intervals... More about our weather records

Advertising

Thane weather history for previous 24 hours

 ConditionsComfort  
Time TempWeatherWind HumidityBarometerVisibility
12:40 PM
Sun, Mar 1
79 °FBroken clouds.9 mph65%29.80 "Hg4 mi
10:40 AM75 °FBroken clouds.12 mph74%29.83 "Hg4 mi
8:40 AM70 °FBroken clouds.7 mph83%29.80 "Hg2 mi
6:40 AM68 °FPartly cloudy.5 mph83%29.77 "Hg1 mi
5:40 AM68 °FPartly cloudy.7 mph83%29.74 "Hg2 mi
4:40 AM68 °FPartly cloudy.6 mph83%29.74 "Hg2 mi
3:40 AM68 °FPartly cloudy.8 mph83%29.74 "Hg2 mi
2:40 AM68 °FPartly cloudy.8 mph83%29.77 "Hg2 mi
1:40 AM68 °FPartly cloudy.8 mph88%29.80 "Hg2 mi
12:40 AM68 °FLight rain. Mostly cloudy.7 mph88%29.83 "Hg2 mi
11:40 PM
Sat, Feb 28
68 °FLight rain. Mostly cloudy.9 mph88%29.83 "Hg1 mi
10:40 PM70 °FLight rain. Mostly cloudy.10 mph94%29.83 "Hg1 mi
9:40 PM70 °FLight rain. Mostly cloudy.6 mph94%29.89 "Hg1 mi
7:40 PM72 °FRain. Mostly cloudy.No wind94%29.86 "Hg2 mi
6:40 PM72 °FBroken clouds.10 mph83%29.83 "Hg2 mi
5:40 PM72 °FLight rain. Broken clouds.9 mph88%29.83 "Hg2 mi
4:40 PM73 °FRain. Broken clouds.12 mph83%29.80 "Hg2 mi
3:40 PM75 °FLight rain. Broken clouds.No wind74%29.77 "Hg3 mi
2:40 PM77 °FLight rain. Broken clouds.5 mph65%29.80 "Hg3 mi
Weather by CustomWeather, © 2015

See weather overviewHow to use our weather pages